DW0333 Tranby-Lier NO current weather conditions

sailwx.info

Wind from 240 at 3 knots

Air temperature 6.7° C
Dewpoint -1.7° C

Last reported at 2014-Oct-30 13:48 UTC.
Time now 2014-Oct-30 14:32 UTC

Location: N 59°50' E 010°17'.
View on Google Maps.

See reports from other nearby stations

  
Tides and Currents Weather Stations Pressure Air Temp Water Temp Dewpoint Dewpoint Depression Visibility Wind Speed Wind Dir Waves Ship Positions
date/time (UTC)wind fromknots sea level pressurealtimeterstation pressurevisibilityair tempwater tempwave heightnotes
2014-Oct-30 13:48 240 3 6.7
2014-Oct-30 13:33 167 2 7.2
2014-Oct-30 13:18 253 2 7.2
2014-Oct-30 13:03 217 1 7.2
2014-Oct-30 12:47 194 1 7.2
2014-Oct-30 12:32 289 3 7.2
2014-Oct-30 12:17 258 3 7.8
2014-Oct-30 12:02 268 3 7.8
2014-Oct-30 11:47 281 4 7.2
2014-Oct-30 11:32 254 4 6.1
2014-Oct-30 11:17 250 4 6.7
2014-Oct-30 11:01 285 4 6.1
2014-Oct-30 10:46 246 2 5.6
2014-Oct-30 10:32 271 0 4.4
2014-Oct-30 10:17 271 1 4.4
2014-Oct-30 10:00 282 3 3.9
2014-Oct-30 09:46 284 2 3.9
2014-Oct-30 09:29 306 2 3.9
2014-Oct-30 09:14 296 2 3.3
2014-Oct-30 08:59 285 1 3.3
2014-Oct-30 08:44 282 1 3.3
2014-Oct-30 08:28 295 1 2.8
2014-Oct-30 08:13 288 0 2.8
2014-Oct-30 07:58 143 2.8
2014-Oct-30 07:43 144 0 2.2
2014-Oct-30 07:27 144 2.2
2014-Oct-30 07:12 185 2.2
2014-Oct-30 06:57 190 1 2.8
2014-Oct-30 06:42 245 2 2.8
2014-Oct-30 06:27 253 2 2.8
2014-Oct-30 06:12 223 2 2.8
2014-Oct-30 05:57 277 4 2.8
2014-Oct-30 05:42 260 5 2.8
2014-Oct-30 05:27 261 3 2.2
2014-Oct-30 05:12 310 0 2.2
2014-Oct-30 04:56 264 2 2.2
2014-Oct-30 04:41 290 3 2.2
2014-Oct-30 04:26 212 1 1.7
2014-Oct-30 04:09 241 2 2.2
2014-Oct-30 03:54 244 1 2.2
2014-Oct-30 03:39 279 1 2.2
2014-Oct-30 03:24 250 1 2.2
2014-Oct-30 03:08 249 2 2.2
2014-Oct-30 02:53 263 2 2.8
2014-Oct-30 02:38 287 2 2.2
2014-Oct-30 02:23 246 2 2.8
2014-Oct-30 02:07 251 2 2.8
2014-Oct-30 01:52 269 2 2.2
2014-Oct-30 01:37 244 2 2.2
2014-Oct-30 01:22 286 1 2.2
2014-Oct-30 01:07 250 1 2.8
2014-Oct-30 00:52 284 2 2.8
2014-Oct-30 00:37 256 2 3.3
2014-Oct-30 00:21 217 4 3.3
2014-Oct-30 00:06 286 1 3.3
2014-Oct-29 23:51 280 2 3.3
2014-Oct-29 23:37 300 3 3.3
2014-Oct-29 23:21 284 4 3.9
2014-Oct-29 23:06 278 6 3.9
2014-Oct-29 22:49 277 4 3.9
2014-Oct-29 22:34 296 6 3.9
2014-Oct-29 22:19 290 7 3.9
2014-Oct-29 22:04 263 6 3.9
2014-Oct-29 21:49 294 6 3.9
2014-Oct-29 21:33 275 7 3.9
2014-Oct-29 21:18 284 6 4.4
2014-Oct-29 21:03 275 6 4.4
2014-Oct-29 20:49 280 6 3.9
2014-Oct-29 20:32 265 5 3.9
2014-Oct-29 20:17 288 5 3.9
2014-Oct-29 20:02 323 4 3.9
2014-Oct-29 19:48 295 3 3.9
2014-Oct-29 19:32 287 3 3.9
2014-Oct-29 19:17 282 4 4.4
2014-Oct-29 19:02 278 4 4.4
2014-Oct-29 18:47 272 5 4.4
2014-Oct-29 18:32 277 2 4.4
2014-Oct-29 18:16 250 4 4.4
2014-Oct-29 18:01 285 2 4.4
2014-Oct-29 17:46 292 3 5.0
2014-Oct-29 17:31 257 4 5.0
2014-Oct-29 17:16 254 6 5.6
2014-Oct-29 16:59 250 5 5.6
2014-Oct-29 16:44 247 5 5.6
2014-Oct-29 16:29 270 4 6.1
2014-Oct-29 16:13 294 6 6.1
2014-Oct-29 15:58 237 5 6.7
2014-Oct-29 15:43 265 4 6.7
2014-Oct-29 15:28 258 5 7.2
2014-Oct-29 15:13 265 3 7.8
2014-Oct-29 14:58 292 4 7.8
2014-Oct-29 14:42 231 6 8.3
2014-Oct-29 14:28 273 6 8.3
2014-Oct-29 14:13 250 6 8.3
2014-Oct-29 13:57 247 6 8.3
2014-Oct-29 13:42 212 6 8.9
2014-Oct-29 13:27 248 5 8.9
2014-Oct-29 13:12 181 4 8.9
2014-Oct-29 12:57 236 5 8.9
2014-Oct-29 12:42 165 6 8.9
2014-Oct-29 12:26 267 5 8.9
2014-Oct-29 12:11 272 4 8.9
2014-Oct-29 11:57 252 5 8.9
2014-Oct-29 11:41 296 4 8.9
2014-Oct-29 11:24 294 4 8.9
2014-Oct-29 11:09 267 4 8.9
2014-Oct-29 10:54 265 3 8.3
2014-Oct-29 10:39 298 5 8.3
2014-Oct-29 10:23 281 5 8.3
2014-Oct-29 10:08 345 3 7.8
2014-Oct-29 09:53 306 4 7.2
2014-Oct-29 09:38 290 4 7.2
2014-Oct-29 09:23 287 4 6.7
2014-Oct-29 09:07 294 5 6.1
2014-Oct-29 08:52 275 4 5.0
2014-Oct-29 08:37 292 5 4.4
2014-Oct-29 08:22 294 2 3.3
2014-Oct-29 08:07 284 2 3.3
2014-Oct-29 07:51 299 2 2.8
2014-Oct-29 07:37 042 2 2.8
2014-Oct-29 07:21 313 1 2.8
2014-Oct-29 07:06 290 3 2.8
2014-Oct-29 06:51 051 0 2.8
2014-Oct-29 06:37 296 1 2.8
2014-Oct-29 06:19 019 1 2.8
2014-Oct-29 06:04 323 1 3.3
2014-Oct-29 05:49 043 0 3.3
2014-Oct-29 05:34 303 2 3.3
2014-Oct-29 05:18 008 2 3.9
2014-Oct-29 05:03 342 2 3.9
2014-Oct-29 04:48 274 2 4.4
2014-Oct-29 04:33 300 4 5.0
2014-Oct-29 04:17 286 4 5.6
2014-Oct-29 04:02 292 4 6.7
2014-Oct-29 03:47 274 4 7.2
2014-Oct-29 03:32 224 5 7.8
2014-Oct-29 03:18 256 2 8.3
2014-Oct-29 03:02 242 3 8.3
2014-Oct-29 02:46 244 3 8.3
2014-Oct-29 02:32 229 1 8.3
2014-Oct-29 02:17 207 2 8.3
2014-Oct-29 02:02 217 3 8.3
2014-Oct-29 01:47 225 4 8.3
2014-Oct-29 01:32 207 4 8.9
2014-Oct-29 01:14 212 3 8.9
2014-Oct-29 00:59 250 4 8.9
2014-Oct-29 00:44 229 5 8.9
2014-Oct-29 00:30 234 4 8.9
2014-Oct-29 00:13 224 5 8.9
2014-Oct-28 23:58 212 2 9.4
2014-Oct-28 23:43 121 2 9.4
2014-Oct-28 23:29 271 4 9.4
2014-Oct-28 23:12 212 2 9.4
2014-Oct-28 22:57 245 3 9.4
2014-Oct-28 22:43 207 2 9.4
2014-Oct-28 22:27 240 2 10.0
2014-Oct-28 22:13 288 5 10.0
2014-Oct-28 21:57 254 5 11.1
2014-Oct-28 21:43 189 6 11.1
2014-Oct-28 21:27 184 6 11.7
2014-Oct-28 21:12 221 6 11.7
2014-Oct-28 20:57 150 7 11.7
2014-Oct-28 20:42 179 7 11.7
2014-Oct-28 20:26 165 8 11.7
2014-Oct-28 20:11 207 7 11.7
2014-Oct-28 19:56 146 8 11.7
2014-Oct-28 19:39 174 7 11.7
2014-Oct-28 19:25 146 8 11.7
2014-Oct-28 19:09 194 9 11.7
2014-Oct-28 18:54 212 9 11.7
2014-Oct-28 18:38 156 8 11.7
2014-Oct-28 18:23 177 9 11.7
2014-Oct-28 18:08 185 10 11.7
2014-Oct-28 17:53 238 10 11.7
2014-Oct-28 17:37 183 10 11.7
2014-Oct-28 17:22 192 9 11.7
2014-Oct-28 17:07 202 9 11.7
2014-Oct-28 16:52 151 9 11.7
2014-Oct-28 16:37 177 10 11.7
2014-Oct-28 16:22 180 11 11.7
2014-Oct-28 16:07 185 10 11.1
2014-Oct-28 15:52 166 10 11.1
2014-Oct-28 15:36 181 8 11.1
2014-Oct-28 15:21 185 10 11.1
2014-Oct-28 15:06 152 10 11.7
2014-Oct-28 14:51 188 9 11.7
2014-Oct-28 14:36 183 10 11.7
2014-Oct-28 14:21 142 9 11.7
2014-Oct-28 14:04 128 10 11.7